User: anonymous   Login
Location: Unspecified
(0.0000°N, 0.0000°E)
Time: 18:22:03
(UTC+00:00)
Language:

USA 281 - Orbit

View from above orbital plane
View from above orbital plane
View from above satellite
View from above satellite

Ground track
Ground track

The orbit data is extracted from the following two-line orbital elements,

1 43145U 18005A   18343.24384502 0.00000000  00000-0  00000-0 0    01
2 43145 106.0005 301.1670 0003000 125.3315 234.6684 13.48036235    00
Epoch (UTC): 09 December 2018 05:51:08
Eccentricity: 0.0003000
inclination: 106.0005°
perigee height: 1077 km
apogee height: 1082 km
right ascension of ascending node: 301.1670°
argument of perigee: 125.3315°
revolutions per day: 13.48036235
mean anomaly at epoch: 234.6684°
orbit number at epoch: 0

The dashed part of the orbit path shows where the satellite is in the earth's shadow,  

DLR